[[{"header":{"parameterUnit":"m.s-1","parameterCategory":1,"la1":30.2991,"la2":30.254,"lo1":-89.0895,"lo2":-89.0444,"dy":0.0017,"dx":0.0017,"nx":28,"ny":28,"refTime":"2024-03-05T03:00:00:Z","depth":0,"parameterNumber":2,"parameterNumberName":"U-component_of_WINDS"},"data":[0,0,0,0,0,0,0,0,0,0,0,0,0,0,0,0,0,0,0,0,0,0,0,0,0,0,0,0,0,0,0,0,0,0,0,0,0,0,0,0,0,0,0,0,0,0,0,0,0,0,0,0,0,0,0,0,0,0,-0.8652,-0.8653,0,-0.8748,-0.8749,-0.875,-0.876,-0.8759,-0.8758,-0.8757,-0.8858,-0.8862,-0.8865,0,0,0,0,0,0,0,0,0,0,0,0,0,-0.8482,-0.8485,-0.8652,-0.8653,-0.8655,-0.8748,-0.8749,-0.8751,-0.876,-0.8759,-0.8758,-0.8757,-0.8857,-0.8861,-0.8866,0,0,0,0,0,0,0,0,0,0,0,0,0,-0.8565,-0.8486,-0.8652,-0.8671,-0.8673,-0.8748,-0.8749,-0.8751,-0.8761,-0.8759,-0.8758,-0.8756,-0.8856,-0.8861,-0.8866,-0.8929,0,0,-0.8883,-0.8885,0,0,0,0,0,0,0,0,-0.856,-0.8571,-0.8667,-0.867,-0.8673,-0.8741,-0.8726,-0.8811,-0.8761,-0.8728,-0.8757,-0.8755,-0.8821,-0.8829,-0.885,-0.8934,-0.8939,-0.8883,-0.8887,-0.8889,-0.889,0,0,0,0,0,0,0,-0.8554,-0.8567,-0.869,-0.8668,-0.8672,-0.8676,-0.8686,-0.8742,-0.8781,-0.873,-0.8731,-0.8742,-0.8822,-0.8845,-0.8852,-0.894,-0.8883,-0.8888,-0.8891,-0.8893,-0.9083,-0.9084,0,0,0,0,0,0,-0.8545,-0.8562,-0.8687,-0.8693,-0.8611,-0.868,-0.8691,-0.872,-0.8781,-0.8788,-0.8743,-0.8742,-0.8836,-0.8846,-0.8856,-0.8935,-0.8889,-0.8894,-0.8897,-0.9081,-0.9083,-0.9085,0,0,0,0,0,0,-0.8541,-0.8556,-0.8683,-0.8628,-0.8644,-0.8684,-0.8717,-0.8723,-0.8746,-0.8791,-0.8798,-0.8759,-0.8835,-0.8848,-0.8911,-0.8939,-0.8896,-0.8901,-0.9079,-0.9082,-0.9084,-0.9093,0,0,0,0,0,0,-0.8536,-0.8554,-0.8578,-0.8628,-0.8647,-0.8736,-0.8719,-0.8726,-0.8755,-0.8754,-0.8808,-0.8815,-0.8835,-0.8903,-0.8917,-0.8945,-0.8906,-0.9077,-0.908,-0.9083,-0.909,-0.9096,-0.91,0,0,0,0,0,-0.853,-0.8577,-0.8579,-0.8594,-0.8677,-0.8737,-0.8748,-0.877,-0.8757,-0.8782,-0.8811,-0.8813,-0.8933,-0.891,-0.8925,-0.8956,-0.9075,-0.9079,-0.9083,-0.9088,-0.9095,-0.91,0,0,0,0,0,0,-0.8529,-0.8584,-0.8586,-0.8651,-0.8689,-0.8739,-0.877,-0.8776,-0.8819,-0.8817,-0.8843,-0.8855,-0.8917,-0.8943,-0.8915,-0.9021,-0.9003,-0.901,-0.9002,-0.9008,-0.9013,-0.9006,-0.891,0,0,0,0,0,-0.8536,-0.8579,-0.8625,-0.8677,-0.8697,-0.873,-0.8757,-0.877,-0.8812,-0.8828,-0.8862,-0.8903,-0.895,-0.898,-0.9026,-0.9094,-0.9107,-0.9123,-0.9128,-0.9132,-0.9138,-0.9177,-0.9185,-0.9098,-0.9098,-0.9098,0,0,-0.8552,-0.8587,-0.8612,-0.8678,-0.8709,-0.8755,-0.8744,-0.8792,-0.8826,-0.8836,-0.8897,-0.8924,-0.8971,-0.9037,-0.9068,-0.906,-0.9165,-0.9137,-0.9139,-0.9144,-0.9182,-0.919,-0.9197,-0.9101,-0.91,-0.91,0,0,-0.8603,-0.8633,-0.8681,-0.8713,-0.876,-0.8782,-0.8794,-0.8843,-0.886,-0.8922,-0.8931,-0.8973,-0.9053,-0.9087,-0.9115,-0.918,-0.9185,-0.9195,-0.922,-0.9258,-0.9265,-0.9271,-0.9295,-0.9304,-0.92,-0.92,-0.9201,0,-0.8617,-0.8684,-0.8705,-0.8753,-0.8783,-0.8793,-0.8842,-0.8872,-0.8932,-0.8953,-0.8944,-0.9045,-0.9078,-0.9153,-0.9169,-0.9191,-0.9206,-0.9189,-0.9262,-0.9268,-0.9274,-0.9298,-0.9307,-0.9201,-0.9201,-0.9201,-0.9201,0,-0.8699,-0.8746,-0.8779,-0.8836,-0.8869,-0.8918,-0.8947,-0.8979,-0.8989,-0.9013,-0.9077,-0.9117,-0.9171,-0.919,-0.9201,-0.9267,-0.9261,-0.9256,-0.9239,-0.9283,-0.9306,-0.9315,-0.9203,-0.9202,-0.9202,-0.9202,0,0,-0.8752,-0.8821,-0.8833,-0.8859,-0.8913,-0.895,-0.9,-0.9052,-0.9079,-0.9121,-0.9164,-0.9233,-0.9229,-0.9261,-0.9276,-0.9309,-0.936,-0.9301,-0.9302,-0.9311,-0.9436,-0.944,-0.945,-0.9363,-0.9365,-0.9367,-0.9433,0,-0.881,-0.8898,-0.8919,-0.8994,-0.9039,-0.905,-0.9093,-0.9132,-0.9155,-0.9198,-0.9225,-0.9273,-0.9264,-0.9283,-0.9317,-0.9347,-0.9386,-0.9342,-0.9405,-0.9407,-0.9393,-0.9462,-0.9465,-0.9526,-0.9442,-0.9443,-0.9444,0,-0.889,-0.8932,-0.9012,-0.9061,-0.908,-0.9119,-0.9169,-0.9209,-0.9254,-0.9269,-0.9305,-0.9317,-0.9371,-0.935,-0.9426,-0.9396,-0.9423,-0.9442,-0.9445,-0.9452,-0.9429,-0.9471,-0.9545,-0.9555,-0.9458,-0.9457,-0.9456,0,-0.8922,-0.8999,-0.9057,-0.908,-0.9138,-0.9165,-0.9191,-0.9233,-0.9264,-0.9309,-0.9329,-0.938,-0.9408,-0.9447,-0.9474,-0.9456,-0.9548,-0.9529,-0.9563,-0.9562,-0.9582,-0.958,-0.9662,-0.9598,-0.9598,-0.9598,-0.9598,0,-0.8985,-0.9034,-0.9073,-0.9108,-0.9164,-0.9188,-0.9243,-0.9269,-0.9307,-0.9349,-0.9362,-0.9402,-0.9433,-0.9478,-0.9499,-0.9559,-0.9571,-0.9586,-0.9591,-0.9585,-0.9584,-0.9604,-0.9601,-0.96,-0.96,-0.9599,-0.9599,0,-0.903,-0.9058,-0.9122,-0.9172,-0.9185,-0.9224,-0.9267,-0.9304,-0.9328,-0.9381,-0.9395,-0.9434,-0.9487,-0.9517,-0.9584,-0.9598,-0.9665,-0.9668,-0.965,-0.9652,-0.9685,-0.9681,-0.9783,-0.9798,-0.9723,-0.9724,-0.9724,0,-0.9069,-0.9106,-0.916,-0.9189,-0.9214,-0.926,-0.9292,-0.9318,-0.935,-0.9404,-0.9434,-0.9488,-0.9532,-0.9617,-0.9652,-0.9704,-0.9708,-0.974,-0.9716,-0.9709,-0.971,-0.9707,-0.9712,-0.9744,-0.9745,-0.9745,-0.9746,0,-0.9135,-0.9147,-0.9191,-0.924,-0.9277,-0.9317,-0.9357,-0.938,-0.9413,-0.9449,-0.9503,-0.9537,-0.9606,-0.966,-0.9714,-0.9742,-0.9751,-0.9753,-0.9764,-0.9759,-0.9747,-0.9755,-0.9662,-0.9751,-0.975,-0.975,-0.975,-0.975,-0.9179,-0.9213,-0.9256,-0.9305,-0.9338,-0.9375,-0.9412,-0.944,-0.9486,-0.9543,-0.9556,-0.9613,-0.9658,-0.9732,-0.9762,-0.9808,-0.9802,-0.9818,-0.9822,-0.9825,-0.9827,-0.9739,-0.9818,-0.9818,-0.9818,-0.9818,-0.9818,0,-0.9246,-0.9274,-0.9319,-0.9374,-0.9413,-0.9416,-0.9461,-0.9494,-0.9544,-0.9585,-0.9628,-0.9691,-0.9743,-0.9783,-0.9837,-0.9866,-0.9871,-0.988,-0.9878,-0.9885,-0.9828,-0.9814,-0.9875,-0.9875,-0.9875,-0.9875,-0.9875,-0.9875,-0.9286,-0.9344,-0.9362,-0.9437,-0.9466,-0.9521,-0.9547,-0.9582,-0.9615,-0.9684,-0.9727,-0.9752,-0.9793,-0.985,-0.9899,-0.9909,-0.9929,-0.9937,-0.9948,-0.9895,-0.9888,-0.9883,-0.9869,-0.9941,-0.9941,-1.0001,-1.0001,-1.0002]},{"header":{"parameterUnit":"m.s-1","parameterCategory":1,"la1":30.2991,"la2":30.254,"lo1":-89.0895,"lo2":-89.0444,"dy":0.0017,"dx":0.0017,"nx":28,"ny":28,"refTime":"2024-03-05T03:00:00:Z","depth":0,"parameterNumber":3,"parameterNumberName":"V-component_of_WINDS"},"data":[0,0,0,0,0,0,0,0,0,0,0,0,0,0,0,0,0,0,0,0,0,0,0,0,0,0,0,0,0,0,0,0,0,0,0,0,0,0,0,0,0,0,0,0,0,0,0,0,0,0,0,0,0,0,0,0,0,0,1.3723,1.3721,0,1.361,1.3609,1.3607,1.3585,1.3586,1.3587,1.3588,1.3469,1.3465,1.3461,0,0,0,0,0,0,0,0,0,0,0,0,0,1.3916,1.3913,1.3723,1.3721,1.372,1.361,1.3609,1.3607,1.3585,1.3586,1.3587,1.3588,1.347,1.3465,1.3461,0,0,0,0,0,0,0,0,0,0,0,0,0,1.3821,1.3912,1.3723,1.3696,1.3692,1.3611,1.3609,1.3607,1.3585,1.3586,1.3587,1.3589,1.3472,1.3466,1.346,1.3396,0,0,1.3442,1.3439,0,0,0,0,0,0,0,0,1.3826,1.3813,1.3701,1.3697,1.3693,1.3613,1.3633,1.3536,1.3584,1.3625,1.3588,1.3589,1.3515,1.3506,1.3482,1.3391,1.3386,1.3441,1.3437,1.3435,1.3433,0,0,0,0,0,0,0,1.3833,1.3818,1.3678,1.3699,1.3695,1.3688,1.3676,1.3615,1.3564,1.3622,1.362,1.3607,1.3514,1.3488,1.3479,1.3384,1.3441,1.3436,1.3432,1.343,1.3236,1.3234,0,0,0,0,0,0,1.3845,1.3824,1.3682,1.3675,1.3764,1.3684,1.367,1.3637,1.3565,1.3555,1.3606,1.3607,1.3497,1.3486,1.3475,1.3395,1.3435,1.3429,1.3426,1.3237,1.3235,1.3234,0,0,0,0,0,0,1.3849,1.3832,1.3686,1.3749,1.373,1.3679,1.3642,1.3634,1.3608,1.3553,1.3544,1.3589,1.3498,1.3483,1.3416,1.3391,1.3427,1.3421,1.3239,1.3237,1.3235,1.3237,0,0,0,0,0,0,1.3854,1.3834,1.3809,1.3748,1.3726,1.363,1.3641,1.3631,1.3599,1.3598,1.3534,1.3525,1.3498,1.3425,1.341,1.3383,1.3416,1.3241,1.3238,1.3235,1.3239,1.3235,1.3232,0,0,0,0,0,1.3861,1.3814,1.3808,1.3791,1.3695,1.3629,1.3616,1.3587,1.3597,1.3572,1.3536,1.3527,1.3397,1.3419,1.3402,1.3372,1.3243,1.3239,1.3236,1.324,1.3236,1.3232,0,0,0,0,0,0,1.3871,1.3805,1.3798,1.373,1.3685,1.3625,1.3593,1.3582,1.3533,1.3535,1.3499,1.3485,1.342,1.339,1.3416,1.3308,1.332,1.3313,1.333,1.3325,1.3321,1.3329,1.3411,0,0,0,0,0,1.3866,1.3819,1.3763,1.3707,1.3686,1.3643,1.3613,1.3595,1.3547,1.3527,1.3487,1.344,1.3389,1.3355,1.3304,1.3235,1.322,1.3206,1.3203,1.32,1.3194,1.3155,1.3148,1.3222,1.3222,1.3222,0,0,1.3853,1.3811,1.3783,1.3708,1.3672,1.3623,1.3627,1.3575,1.3538,1.3519,1.3454,1.3423,1.3368,1.33,1.3268,1.3273,1.3171,1.3196,1.3194,1.3189,1.3151,1.3144,1.3138,1.322,1.322,1.3221,0,0,1.3805,1.3769,1.3719,1.3683,1.3628,1.3601,1.3589,1.3531,1.351,1.3444,1.3429,1.3385,1.3297,1.3258,1.3227,1.3167,1.3157,1.3152,1.3132,1.3095,1.3089,1.3084,1.3062,1.3054,1.3146,1.3146,1.3146,0,1.3795,1.3722,1.3694,1.3643,1.3611,1.3593,1.3542,1.3508,1.3439,1.3417,1.3424,1.3314,1.3275,1.3198,1.3184,1.3159,1.3144,1.3158,1.3092,1.3087,1.3081,1.306,1.3052,1.3146,1.3146,1.3146,1.3146,0,1.3713,1.3663,1.3629,1.3565,1.3529,1.3478,1.3442,1.3408,1.3394,1.3365,1.3299,1.3253,1.3193,1.3174,1.3158,1.3095,1.3099,1.31,1.3111,1.3074,1.3054,1.3045,1.3145,1.3146,1.3146,1.3146,0,0,1.3666,1.3589,1.3577,1.3548,1.3487,1.3447,1.3396,1.3339,1.3311,1.3265,1.322,1.3147,1.3148,1.3113,1.3093,1.306,1.3015,1.3064,1.3063,1.3056,1.2942,1.2942,1.2933,1.3009,1.3007,1.3006,1.2947,0,1.361,1.3519,1.3493,1.3416,1.3369,1.3352,1.3308,1.3265,1.3238,1.3193,1.3163,1.3112,1.3116,1.3095,1.3062,1.3028,1.2992,1.3032,1.2966,1.2964,1.2979,1.2922,1.292,1.2867,1.2939,1.2937,1.2936,0,1.3532,1.3486,1.3405,1.3351,1.3331,1.3291,1.3237,1.3195,1.3147,1.3129,1.3092,1.3075,1.302,1.3037,1.2961,1.2989,1.296,1.294,1.2937,1.2928,1.2947,1.2911,1.2849,1.284,1.2923,1.2924,1.2925,0,1.3505,1.3423,1.3363,1.3339,1.3276,1.3248,1.322,1.3174,1.3142,1.3094,1.3073,1.302,1.299,1.295,1.2919,1.2934,1.2845,1.2859,1.2828,1.2829,1.2809,1.281,1.274,1.2793,1.2793,1.2793,1.2794,0,1.3444,1.3395,1.3351,1.3314,1.3258,1.3229,1.3175,1.3146,1.3105,1.3062,1.3045,1.3005,1.2967,1.2922,1.2898,1.2838,1.2825,1.2809,1.2803,1.281,1.2812,1.279,1.2792,1.2791,1.2792,1.2792,1.2792,0,1.3404,1.3372,1.3307,1.3253,1.3238,1.32,1.3153,1.3116,1.309,1.3036,1.3021,1.2978,1.2924,1.2891,1.2821,1.2805,1.274,1.2735,1.2756,1.2753,1.2724,1.2727,1.2636,1.2623,1.2686,1.2685,1.2685,0,1.3367,1.3329,1.3271,1.3242,1.3215,1.3167,1.3135,1.3106,1.3072,1.3016,1.2986,1.2932,1.2886,1.2801,1.2763,1.271,1.2704,1.2676,1.2695,1.2704,1.2702,1.2705,1.27,1.2672,1.2671,1.2671,1.2671,0,1.3304,1.3291,1.3245,1.3195,1.3157,1.3116,1.3074,1.3051,1.3014,1.2978,1.2924,1.2889,1.2819,1.2765,1.271,1.268,1.2668,1.2665,1.2655,1.2661,1.2674,1.2666,1.2746,1.2667,1.2667,1.2667,1.2668,1.2668,1.3263,1.3229,1.3184,1.3134,1.31,1.3062,1.3026,1.2995,1.295,1.2892,1.2877,1.282,1.2774,1.2698,1.2668,1.2622,1.2626,1.2611,1.2607,1.2604,1.2603,1.2683,1.2612,1.2612,1.2612,1.2612,1.2612,0,1.3199,1.3169,1.3124,1.3068,1.3029,1.3024,1.2978,1.2946,1.2896,1.2855,1.2811,1.2749,1.2697,1.2656,1.2602,1.2573,1.2567,1.256,1.2561,1.2555,1.2603,1.2617,1.2566,1.2566,1.2566,1.2566,1.2566,1.2566,1.316,1.3102,1.3084,1.3009,1.298,1.2925,1.2899,1.2864,1.2831,1.2763,1.272,1.2694,1.2653,1.2596,1.2548,1.2537,1.2518,1.2512,1.25,1.2546,1.2551,1.2556,1.2568,1.2508,1.2508,1.2455,1.2454,1.2454]}]]